When you browse on this site, cookies collect data to enhance your experience and personalize the content and advertising you see.
Visit our Privacy Policy to learn more. By continuing to use the site, you agree to this use of cookies and data.
  • In Latvia
  • List of Countries
  • For 7 days
  • Water Temperature
  • Weather Map
  • Weather Widgets
  • user-avatar
    Login

    Hourly Weather Baar

    Today, 30 May, Saturday

    Time Temperature Precipitation Wind Pressure Humidity
    00:00 +10°C° 0 mm 1 mps 724 mmHg 88%
    01:00 +9°C° 0 mm 1 mps 724 mmHg 89%
    02:00 +9°C° 0 mm 1 mps 724 mmHg 90%
    03:00 +8°C° 0 mm 1 mps 724 mmHg 90%
    04:00 +7°C° 0 mm 0 mps 724 mmHg 91%
    05:00 +9°C° 0 mm 1 mps 724 mmHg 87%
    06:00 +10°C° 0 mm 1 mps 724 mmHg 82%
    07:00 +12°C° 0 mm 1 mps 724 mmHg 78%
    08:00 +13°C° 0 mm 2 mps 724 mmHg 72%
    09:00 +15°C° 0 mm 2 mps 724 mmHg 65%
    10:00 +17°C° 0 mm 3 mps 724 mmHg 59%
    11:00 +17°C° 0 mm 3 mps 723 mmHg 56%
    12:00 +18°C° 0 mm 3 mps 723 mmHg 52%
    13:00 +19°C° 0 mm 4 mps 723 mmHg 48%
    14:00 +19°C° 0 mm 4 mps 723 mmHg 49%
    15:00 +19°C° 0 mm 4 mps 723 mmHg 50%
    16:00 +19°C° 0 mm 4 mps 722 mmHg 51%
    17:00 +18°C° 0 mm 3 mps 722 mmHg 57%
    18:00 +17°C° 0 mm 3 mps 722 mmHg 63%
    19:00 +16°C° 0 mm 2 mps 722 mmHg 69%
    20:00 +14°C° 0 mm 2 mps 723 mmHg 75%
    21:00 +12°C° 0 mm 2 mps 723 mmHg 81%
    22:00 +11°C° 0 mm 1 mps 723 mmHg 88%
    23:00 +10°C° 0 mm 1 mps 723 mmHg 89%

    Tomorrow, 31 May, Sunday

    Time Temperature Precipitation Wind Pressure Humidity
    00:00 +9°C° 0 mm 1 mps 723 mmHg 91%
    01:00 +9°C° 0 mm 1 mps 723 mmHg 93%
    02:00 +8°C° 0 mm 1 mps 723 mmHg 93%
    03:00 +8°C° 0 mm 1 mps 723 mmHg 93%
    04:00 +7°C° 0 mm 1 mps 723 mmHg 93%
    05:00 +9°C° 0 mm 1 mps 723 mmHg 88%
    06:00 +10°C° 0 mm 1 mps 723 mmHg 83%
    07:00 +11°C° 0 mm 1 mps 723 mmHg 77%
    08:00 +13°C° 0 mm 2 mps 723 mmHg 71%
    09:00 +15°C° 0 mm 2 mps 723 mmHg 64%
    10:00 +17°C° 0 mm 3 mps 723 mmHg 58%
    11:00 +18°C° 0 mm 3 mps 723 mmHg 55%
    12:00 +19°C° 0 mm 3 mps 723 mmHg 53%
    13:00 +20°C° 0 mm 4 mps 723 mmHg 50%
    14:00 +20°C° 0 mm 4 mps 723 mmHg 50%
    15:00 +20°C° 0 mm 4 mps 722 mmHg 50%
    16:00 +20°C° 0 mm 4 mps 722 mmHg 50%
    17:00 +19°C° 0 mm 3 mps 722 mmHg 56%
    18:00 +18°C° 0 mm 3 mps 722 mmHg 61%
    19:00 +17°C° 0 mm 3 mps 722 mmHg 67%
    20:00 +15°C° 0 mm 2 mps 723 mmHg 73%
    21:00 +13°C° 0 mm 2 mps 723 mmHg 79%
    22:00 +11°C° 0 mm 1 mps 723 mmHg 86%
    23:00 +10°C° 0 mm 1 mps 723 mmHg 87%

    Day after tomorrow, 1 June, Monday

    Time Temperature Precipitation Wind Pressure Humidity
    00:00 +10°C° 0 mm 1 mps 723 mmHg 89%
    01:00 +9°C° 0 mm 1 mps 723 mmHg 91%
    02:00 +9°C° 0 mm 1 mps 723 mmHg 91%
    03:00 +7°C° 0 mm 0 mps 723 mmHg 90%
    04:00 +7°C° 0 mm 0 mps 723 mmHg 90%
    05:00 +9°C° 0 mm 0 mps 723 mmHg 85%
    06:00 +10°C° 0 mm 0 mps 723 mmHg 80%
    07:00 +13°C° 0 mm 1 mps 723 mmHg 75%
    08:00 +15°C° 0 mm 1 mps 723 mmHg 68%
    09:00 +18°C° 0 mm 1 mps 723 mmHg 61%
    10:00 +19°C° 0 mm 2 mps 723 mmHg 54%
    11:00 +20°C° 0 mm 2 mps 723 mmHg 51%
    12:00 +23°C° 0 mm 2 mps 723 mmHg 47%
    13:00 +24°C° 0 mm 3 mps 723 mmHg 44%
    14:00 +24°C° 0 mm 3 mps 723 mmHg 45%
    15:00 +24°C° 0 mm 3 mps 723 mmHg 46%
    16:00 +24°C° 0 mm 3 mps 723 mmHg 47%
    17:00 +22°C° 0 mm 3 mps 723 mmHg 55%
    18:00 +20°C° 0 mm 3 mps 723 mmHg 63%
    19:00 +19°C° 0 mm 2 mps 723 mmHg 71%
    20:00 +17°C° 0 mm 2 mps 723 mmHg 77%
    21:00 +15°C° 0 mm 2 mps 723 mmHg 84%
    22:00 +13°C° 0 mm 1 mps 723 mmHg 91%
    23:00 +13°C° 0 mm 1 mps 723 mmHg 91%

    2 June, Tuesday

    Time Temperature Precipitation Wind Pressure Humidity
    00:00 +12°C° 0 mm 1 mps 723 mmHg 92%
    01:00 +10°C° 0 mm 0 mps 723 mmHg 93%
    02:00 +10°C° 0 mm 0 mps 723 mmHg 93%
    03:00 +10°C° 0 mm 0 mps 723 mmHg 93%
    04:00 +9°C° 0 mm 0 mps 723 mmHg 92%
    05:00 +11°C° 0 mm 0 mps 723 mmHg 88%
    06:00 +12°C° 0 mm 0 mps 723 mmHg 84%
    07:00 +14°C° 0 mm 0 mps 723 mmHg 80%
    08:00 +18°C° 0 mm 1 mps 723 mmHg 72%
    09:00 +20°C° 0 mm 1 mps 723 mmHg 65%
    10:00 +22°C° 0 mm 1 mps 723 mmHg 57%
    11:00 +23°C° 0 mm 1 mps 723 mmHg 52%
    12:00 +25°C° 0 mm 2 mps 722 mmHg 48%
    13:00 +26°C° 0 mm 2 mps 722 mmHg 43%
    14:00 +26°C° 0 mm 2 mps 722 mmHg 43%
    15:00 +26°C° 0 mm 2 mps 721 mmHg 43%
    16:00 +26°C° 0 mm 2 mps 721 mmHg 43%
    17:00 +24°C° 0 mm 2 mps 720 mmHg 51%
    18:00 +23°C° 0 mm 2 mps 720 mmHg 60%
    19:00 +20°C° 0 mm 2 mps 720 mmHg 69%
    20:00 +19°C° 0 mm 1 mps 719 mmHg 75%
    21:00 +16°C° 0 mm 1 mps 719 mmHg 81%
    22:00 +14°C° 0 mm 1 mps 719 mmHg 87%
    23:00 +13°C° 0 mm 1 mps 719 mmHg 87%

    3 June, Wednesday

    Time Temperature Precipitation Wind Pressure Humidity
    00:00 +13°C° 0 mm 1 mps 718 mmHg 87%
    01:00 +13°C° 0 mm 1 mps 718 mmHg 87%
    02:00 +12°C° 0 mm 1 mps 717 mmHg 86%
    03:00 +12°C° 0 mm 1 mps 717 mmHg 85%
    04:00 +12°C° 0 mm 1 mps 717 mmHg 84%
    05:00 +13°C° 0 mm 1 mps 716 mmHg 81%
    06:00 +14°C° 0 mm 0 mps 716 mmHg 78%
    07:00 +15°C° 0 mm 0 mps 716 mmHg 74%
    08:00 +17°C° 0 mm 0 mps 716 mmHg 69%
    09:00 +19°C° 0 mm 0 mps 716 mmHg 63%
    10:00 +22°C° 0 mm 1 mps 716 mmHg 58%
    11:00 +24°C° 0.1 mm 1 mps 716 mmHg 53%
    12:00 +26°C° 0.1 mm 1 mps 715 mmHg 48%
    13:00 +27°C° 0.1 mm 1 mps 715 mmHg 44%
    14:00 +27°C° 0.2 mm 1 mps 714 mmHg 46%
    15:00 +26°C° 0.2 mm 1 mps 714 mmHg 49%
    16:00 +26°C° 0.2 mm 1 mps 714 mmHg 52%
    17:00 +23°C° 2.3 mm 2 mps 713 mmHg 65%
    18:00 +19°C° 2.3 mm 2 mps 713 mmHg 79%
    19:00 +16°C° 2.3 mm 3 mps 713 mmHg 92%
    20:00 +16°C° 1.3 mm 2 mps 713 mmHg 93%
    21:00 +16°C° 1.3 mm 2 mps 713 mmHg 94%
    22:00 +15°C° 1.3 mm 1 mps 713 mmHg 95%
    23:00 +15°C° 0.1 mm 1 mps 713 mmHg 94%

    4 June, Thursday

    Time Temperature Precipitation Wind Pressure Humidity
    00:00 +15°C° 0.1 mm 1 mps 713 mmHg 93%
    01:00 +15°C° 0.1 mm 1 mps 713 mmHg 93%
    02:00 +15°C° 0 mm 1 mps 712 mmHg 93%
    03:00 +14°C° 0 mm 1 mps 712 mmHg 93%
    04:00 +13°C° 0 mm 0 mps 711 mmHg 94%
    05:00 +14°C° 0.1 mm 0 mps 711 mmHg 93%
    06:00 +15°C° 0.1 mm 0 mps 711 mmHg 92%
    07:00 +15°C° 0.1 mm 0 mps 711 mmHg 92%
    08:00 +15°C° 0.4 mm 0 mps 711 mmHg 93%
    09:00 +15°C° 0.4 mm 0 mps 711 mmHg 94%
    10:00 +15°C° 0.4 mm 0 mps 710 mmHg 95%
    11:00 +15°C° 0.8 mm 0 mps 710 mmHg 96%
    12:00 +15°C° 0.8 mm 0 mps 711 mmHg 96%
    13:00 +15°C° 0.8 mm 0 mps 711 mmHg 96%
    14:00 +15°C° 1.7 mm 0 mps 711 mmHg 96%
    15:00 +15°C° 1.7 mm 0 mps 711 mmHg 96%
    16:00 +15°C° 1.7 mm 0 mps 710 mmHg 96%
    17:00 +15°C° 1.8 mm 0 mps 710 mmHg 97%
    18:00 +14°C° 1.8 mm 0 mps 710 mmHg 97%
    19:00 +15°C° 1.8 mm 1 mps 710 mmHg 98%
    20:00 +15°C° 1.8 mm 1 mps 710 mmHg 97%
    21:00 +14°C° 1.8 mm 1 mps 710 mmHg 97%
    22:00 +14°C° 1.8 mm 2 mps 710 mmHg 96%
    23:00 +13°C° 2.5 mm 2 mps 710 mmHg 96%
    Show more